This is the latest recevied weather packets stored in our database for station/object XE2B-20. If no packets are shown the sender has not sent any weather packets the latest 10 day(s).
| Time | Temp. | Humidity | Pressure | Rain* | Wind** | Luminosity | Snow |
|---|---|---|---|---|---|---|---|
| 1787941665 | 32.78° C | 30% | 809.2 hPa | - | - | - | - |
| 1787940167 | 34.44° C | 29% | 809.7 hPa | - | - | - | - |
| 1787938669 | 33.33° C | 30% | 809.9 hPa | - | - | - | - |
| 1787935680 | 31.67° C | 30% | 810.3 hPa | - | - | - | - |
| 1787934175 | 30.56° C | 31% | 810.5 hPa | - | - | - | - |
| 1787932677 | 28.89° C | 32% | 810.6 hPa | - | - | - | - |
| 1787931179 | 28.33° C | 31% | 810.4 hPa | - | - | - | - |
| 1787929678 | 25° C | 34% | 810.5 hPa | - | - | - | - |
| 1787928182 | 21.67° C | 37% | 810.4 hPa | - | - | - | - |
| 1787926681 | 18.33° C | 41% | 810.3 hPa | - | - | - | - |
| 1787925188 | 16.11° C | 43% | 810.1 hPa | - | - | - | - |
| 1787923684 | 15° C | 44% | 809.8 hPa | - | - | - | - |
| 1787922191 | 13.89° C | 45% | 809.6 hPa | - | - | - | - |
| 1787920687 | 13.89° C | 45% | 809.3 hPa | - | - | - | - |
| 1787919188 | 13.89° C | 45% | 809.3 hPa | - | - | - | - |
| 1787917691 | 14.44° C | 44% | 809.1 hPa | - | - | - | - |
| 1787916191 | 14.44° C | 44% | 809 hPa | - | - | - | - |
| 1787914693 | 14.44° C | 44% | 809.1 hPa | - | - | - | - |
| 1787913196 | 15° C | 43% | 808.9 hPa | - | - | - | - |
| 1787911697 | 15° C | 43% | 808.9 hPa | - | - | - | - |
| 1787910198 | 15° C | 43% | 808.9 hPa | - | - | - | - |
| 1787908701 | 15.56° C | 43% | 808.9 hPa | - | - | - | - |
| 1787907203 | 15.56° C | 42% | 809.1 hPa | - | - | - | - |
| 1787905704 | 16.11° C | 41% | 809.1 hPa | - | - | - | - |
| 1787904205 | 16.11° C | 41% | 809 hPa | - | - | - | - |
* Rain since midnight (hover to see other rain measurements)
** Current wind speed in m/s (hover to see current wind gust speed)